{"data":{"norad_id":46167,"epoch":"2026-08-26T01:03:13.448160Z","epoch_age_seconds":2221331,"freshness":"OLD","line1":"1 46167U 20057BC  26238.04390565  .06354903  12219-4  65963-3 0  9992","line2":"2 46167  53.0190 168.8646 0009483 243.0532 116.9545 16.36830569333092","mean_motion":16.36830569,"eccentricity":0.0009483,"inclination_deg":53.019,"raan_deg":168.8646,"arg_perigee_deg":243.0532,"mean_anomaly_deg":116.9545,"bstar":0.00065963,"rev_number":33309,"period_min":87.974896563653,"perigee_km":168.03360568715,"apogee_km":180.4608576209,"semimajor_km":6552.384231654,"source":"CELESTRAK","updated_at":"2026-08-26T09:00:36.126133Z"}}